| time (UTC) | temp F | wind direction | speed knots | gust knots | rain 1hr in | rain 24hr in | rain mn in | humidity % | barometer mb |
| 20260506045042 | 74 | 5 | 0.9 | 4.3 | 0.00 | 0.00 | 0.00 | 90 | 1008.8 |
| 20260506044554 | 74 | 150 | 1.7 | 4.3 | 0.00 | 0.00 | 0.00 | 90 | 1009.0 |
| 20260506044042 | 74 | 214 | 0.0 | 7.0 | 0.00 | 0.00 | 0.00 | 90 | 1008.9 |
| 20260506043544 | 74 | 191 | 0.9 | 7.0 | 0.00 | 0.00 | 0.00 | 90 | 1009.0 |
| 20260506043051 | 74 | 217 | 2.6 | 6.1 | 0.00 | 0.00 | 0.00 | 90 | 1009.0 |
| 20260506042544 | 74 | 188 | 1.7 | 6.1 | 0.00 | 0.00 | 0.00 | 90 | 1008.8 |
| 20260506042045 | 74 | 203 | 1.7 | 7.8 | 0.00 | 0.00 | 0.00 | 90 | 1008.8 |
| 20260506041558 | 74 | 216 | 1.7 | 7.8 | 0.00 | 0.00 | 0.00 | 90 | 1008.7 |
| 20260506041044 | 74 | 253 | 1.7 | 6.1 | 0.00 | 0.00 | 0.00 | 90 | 1008.8 |
| 20260506040544 | 74 | 215 | 1.7 | 6.1 | 0.00 | 0.00 | 0.00 | 90 | 1008.7 |
| 20260506040056 | 74 | 207 | 1.7 | 6.1 | 0.00 | 0.00 | 0.00 | 90 | 1008.7 |
| 20260506035545 | 74 | 195 | 0.9 | 3.5 | 0.00 | 0.00 | 0.00 | 90 | 1008.6 |
| 20260506035045 | 75 | 205 | 0.9 | 4.3 | 0.00 | 0.00 | 0.00 | 90 | 1008.7 |
| 20260506034600 | 75 | 220 | 0.9 | 4.3 | 0.00 | 0.00 | 0.00 | 89 | 1008.6 |
| 20260506034045 | 75 | 208 | 1.7 | 5.2 | 0.00 | 0.00 | 0.00 | 89 | 1008.4 |
| 20260506033546 | 75 | 236 | 1.7 | 5.2 | 0.00 | 0.00 | 0.00 | 89 | 1008.3 |
| 20260506033053 | 75 | 200 | 1.7 | 6.1 | 0.00 | 0.00 | 0.00 | 89 | 1008.4 |
| 20260506032550 | 75 | 219 | 0.9 | 6.1 | 0.00 | 0.00 | 0.00 | 88 | 1008.3 |
| 20260506032049 | 75 | 217 | 1.7 | 5.2 | 0.00 | 0.00 | 0.00 | 88 | 1008.2 |
| 20260506031549 | 75 | 196 | 0.9 | 3.5 | 0.00 | 0.00 | 0.00 | 88 | 1008.2 |
| 20260506031047 | 75 | 179 | 1.7 | 3.5 | 0.00 | 0.00 | 0.00 | 88 | 1008.0 |
| 20260506030545 | 75 | 215 | 1.7 | 3.5 | 0.00 | 0.00 | 0.00 | 88 | 1007.9 |
| 20260506030050 | 75 | 207 | 0.9 | 3.5 | 0.00 | 0.00 | 0.00 | 87 | 1007.8 |
| 20260506025546 | 76 | 200 | 0.9 | 3.5 | 0.00 | 0.00 | 0.00 | 87 | 1007.7 |
| 20260506025044 | 76 | 211 | 0.9 | 3.5 | 0.00 | 0.00 | 0.00 | 87 | 1007.7 |
| 20260506024607 | 76 | 171 | 0.9 | 3.5 | 0.00 | 0.00 | 0.00 | 86 | 1007.5 |
| 20260506024045 | 76 | 0 | 0.9 | 1.7 | 0.00 | 0.00 | 0.00 | 86 | 1007.5 |
| 20260506023548 | 76 | 0 | 0.0 | 4.3 | 0.00 | 0.00 | 0.00 | 86 | 1007.3 |
| 20260506023056 | 76 | 229 | 0.9 | 4.3 | 0.00 | 0.00 | 0.00 | 86 | 1007.3 |
| 20260506022545 | 76 | 199 | 0.9 | 3.5 | 0.00 | 0.00 | 0.00 | 86 | 1007.2 |
| 20260506022045 | 76 | 224 | 0.9 | 3.5 | 0.00 | 0.00 | 0.00 | 86 | 1007.2 |
| 20260506021553 | 76 | 221 | 0.9 | 3.5 | 0.00 | 0.00 | 0.00 | 85 | 1007.2 |
| 20260506021044 | 76 | 223 | 0.9 | 3.5 | 0.00 | 0.00 | 0.00 | 85 | 1007.0 |
| 20260506020548 | 77 | 223 | 1.7 | 3.5 | 0.00 | 0.00 | 0.00 | 85 | 1007.0 |
| 20260506020052 | 77 | 221 | 0.9 | 4.3 | 0.00 | 0.00 | 0.00 | 84 | 1007.0 |
| 20260506015548 | 77 | 209 | 0.9 | 4.3 | 0.00 | 0.00 | 0.00 | 84 | 1006.9 |
| 20260506015042 | 77 | 200 | 0.9 | 4.3 | 0.00 | 0.00 | 0.00 | 84 | 1006.8 |
| 20260506014554 | 77 | 203 | 0.9 | 5.2 | 0.00 | 0.00 | 0.00 | 83 | 1006.6 |
| 20260506014047 | 77 | 216 | 1.7 | 5.2 | 0.00 | 0.00 | 0.00 | 83 | 1006.6 |
| 20260506013548 | 78 | 182 | 1.7 | 5.2 | 0.00 | 0.00 | 0.00 | 82 | 1006.5 |
| 20260506013104 | 78 | 216 | 1.7 | 5.2 | 0.00 | 0.00 | 0.00 | 82 | 1006.5 |
| 20260506012544 | 78 | 217 | 0.9 | 5.2 | 0.00 | 0.00 | 0.00 | 82 | 1006.6 |
| 20260506012045 | 78 | 206 | 0.0 | 6.1 | 0.00 | 0.00 | 0.00 | 81 | 1006.7 |
| 20260506011605 | 79 | 202 | 1.7 | 6.1 | 0.00 | 0.00 | 0.00 | 81 | 1006.6 |
| 20260506011045 | 79 | 233 | 2.6 | 7.0 | 0.00 | 0.00 | 0.00 | 81 | 1006.5 |
| 20260506010545 | 79 | 196 | 2.6 | 7.0 | 0.00 | 0.00 | 0.00 | 81 | 1006.4 |
| 20260506010055 | 79 | 234 | 2.6 | 5.2 | 0.00 | 0.00 | 0.00 | 80 | 1006.5 |
| 20260506005543 | 80 | 0 | 0.9 | 5.2 | 0.00 | 0.00 | 0.00 | 80 | 1006.4 |
| 20260506005045 | 80 | 0 | 0.9 | 5.2 | 0.00 | 0.00 | 0.00 | 79 | 1006.4 |
| 20260506004559 | 80 | 219 | 1.7 | 7.0 | 0.00 | 0.00 | 0.00 | 79 | 1006.5 |
| 20260506004045 | 80 | 238 | 2.6 | 7.0 | 0.00 | 0.00 | 0.00 | 79 | 1006.4 |
| 20260506003545 | 80 | 219 | 2.6 | 7.0 | 0.00 | 0.00 | 0.00 | 78 | 1006.4 |
| 20260506003050 | 81 | 196 | 2.6 | 6.1 | 0.00 | 0.00 | 0.00 | 78 | 1006.5 |
| 20260506002546 | 81 | 211 | 2.6 | 6.1 | 0.00 | 0.00 | 0.00 | 78 | 1006.5 |
| 20260506002045 | 81 | 193 | 1.7 | 7.8 | 0.00 | 0.00 | 0.00 | 78 | 1006.6 |
| 20260506001557 | 81 | 220 | 1.7 | 7.8 | 0.00 | 0.00 | 0.00 | 77 | 1006.6 |
| 20260506001045 | 81 | 204 | 3.5 | 7.8 | 0.00 | 0.00 | 0.00 | 77 | 1006.5 |
| 20260506000546 | 81 | 199 | 2.6 | 9.6 | 0.00 | 0.00 | 0.00 | 77 | 1006.5 |
| 20260506000101 | 81 | 225 | 2.6 | 9.6 | 0.00 | 0.00 | 0.00 | 77 | 1006.5 |
| 20260505235545 | 81 | 225 | 3.5 | 9.6 | 0.00 | 0.00 | 0.00 | 76 | 1006.5 |
| 20260505235045 | 81 | 182 | 3.5 | 9.6 | 0.00 | 0.00 | 0.00 | 76 | 1006.4 |
| 20260505234557 | 81 | 177 | 3.5 | 7.8 | 0.00 | 0.00 | 0.00 | 76 | 1006.6 |
| 20260505234044 | 81 | 251 | 2.6 | 7.0 | 0.00 | 0.00 | 0.00 | 76 | 1006.6 |
| 20260505233544 | 82 | 211 | 3.5 | 7.0 | 0.00 | 0.00 | 0.00 | 75 | 1006.4 |
| 20260505233059 | 82 | 209 | 3.5 | 7.8 | 0.00 | 0.00 | 0.00 | 76 | 1006.3 |
| 20260505232545 | 82 | 197 | 2.6 | 7.8 | 0.00 | 0.00 | 0.00 | 75 | 1006.2 |
| 20260505232047 | 81 | 207 | 2.6 | 7.0 | 0.00 | 0.00 | 0.00 | 76 | 1006.3 |
| 20260505231553 | 81 | 248 | 2.6 | 7.0 | 0.00 | 0.00 | 0.00 | 76 | 1006.2 |
| 20260505231047 | 82 | 201 | 1.7 | 7.0 | 0.00 | 0.00 | 0.00 | 76 | 1006.3 |
| 20260505230545 | 82 | 203 | 3.5 | 8.7 | 0.00 | 0.00 | 0.00 | 75 | 1006.2 |
| 20260505230104 | 82 | 206 | 3.5 | 8.7 | 0.00 | 0.00 | 0.00 | 74 | 1006.2 |
| 20260505225548 | 82 | 161 | 2.6 | 8.7 | 0.00 | 0.00 | 0.00 | 75 | 1006.3 |
| 20260505225045 | 82 | 202 | 4.3 | 8.7 | 0.00 | 0.00 | 0.00 | 74 | 1006.3 |
| 20260505224553 | 82 | 236 | 3.5 | 9.6 | 0.00 | 0.00 | 0.00 | 74 | 1006.2 |
| 20260505224046 | 82 | 172 | 4.3 | 9.6 | 0.00 | 0.00 | 0.00 | 74 | 1006.2 |
| 20260505223545 | 82 | 213 | 3.5 | 11.3 | 0.00 | 0.00 | 0.00 | 76 | 1006.2 |
| 20260505223108 | 82 | 227 | 3.5 | 11.3 | 0.00 | 0.00 | 0.00 | 75 | 1006.1 |
| 20260505222544 | 82 | 190 | 4.3 | 9.6 | 0.00 | 0.00 | 0.00 | 74 | 1006.1 |
| 20260505222045 | 82 | 202 | 4.3 | 10.4 | 0.00 | 0.00 | 0.00 | 74 | 1006.1 |
| 20260505221553 | 83 | 233 | 3.5 | 10.4 | 0.00 | 0.00 | 0.00 | 74 | 1006.1 |
| 20260505221047 | 83 | 202 | 4.3 | 7.8 | 0.00 | 0.00 | 0.00 | 73 | 1006.0 |
| 20260505220544 | 82 | 209 | 3.5 | 8.7 | 0.00 | 0.00 | 0.00 | 73 | 1006.0 |
| 20260505220053 | 83 | 188 | 3.5 | 9.6 | 0.00 | 0.00 | 0.00 | 73 | 1006.2 |
| 20260505215545 | 83 | 220 | 3.5 | 9.6 | 0.00 | 0.00 | 0.00 | 72 | 1006.3 |
| 20260505215044 | 83 | 278 | 3.5 | 8.7 | 0.00 | 0.00 | 0.00 | 72 | 1006.3 |
| 20260505214557 | 83 | 221 | 4.3 | 9.6 | 0.00 | 0.00 | 0.00 | 72 | 1006.4 |
| 20260505214045 | 83 | 244 | 4.3 | 11.3 | 0.00 | 0.00 | 0.00 | 72 | 1006.5 |
| 20260505213548 | 82 | 216 | 5.2 | 11.3 | 0.00 | 0.00 | 0.00 | 73 | 1006.5 |
| 20260505213100 | 83 | 231 | 5.2 | 10.4 | 0.00 | 0.00 | 0.00 | 72 | 1006.6 |
| 20260505212545 | 83 | 223 | 4.3 | 10.4 | 0.00 | 0.00 | 0.00 | 73 | 1006.7 |
| 20260505212045 | 83 | 217 | 4.3 | 9.6 | 0.00 | 0.00 | 0.00 | 72 | 1006.6 |
| 20260505211556 | 83 | 224 | 3.5 | 8.7 | 0.00 | 0.00 | 0.00 | 74 | 1006.6 |
| 20260505211045 | 83 | 204 | 3.5 | 10.4 | 0.00 | 0.00 | 0.00 | 74 | 1006.7 |
| 20260505210544 | 83 | 259 | 5.2 | 10.4 | 0.00 | 0.00 | 0.00 | 73 | 1006.7 |
| 20260505210057 | 83 | 225 | 3.5 | 8.7 | 0.00 | 0.00 | 0.00 | 74 | 1006.8 |
| 20260505205544 | 83 | 212 | 4.3 | 13.9 | 0.00 | 0.00 | 0.00 | 73 | 1006.8 |
| 20260505205045 | 82 | 217 | 6.1 | 13.9 | 0.00 | 0.00 | 0.00 | 74 | 1006.9 |
| 20260505204601 | 82 | 217 | 4.3 | 13.9 | 0.00 | 0.00 | 0.00 | 73 | 1006.9 |
| 20260505204044 | 82 | 254 | 6.1 | 12.2 | 0.00 | 0.00 | 0.00 | 73 | 1007.0 |
| 20260505203544 | 83 | 200 | 5.2 | 12.2 | 0.00 | 0.00 | 0.00 | 74 | 1007.1 |
| 20260505203054 | 83 | 221 | 5.2 | 12.2 | 0.00 | 0.00 | 0.00 | 72 | 1007.0 |
| 20260505202543 | 83 | 219 | 4.3 | 12.2 | 0.00 | 0.00 | 0.00 | 73 | 1007.0 |
| 20260505202044 | 82 | 215 | 5.2 | 13.9 | 0.00 | 0.00 | 0.00 | 73 | 1007.1 |
| 20260505201551 | 82 | 230 | 5.2 | 13.9 | 0.00 | 0.00 | 0.00 | 73 | 1007.3 |
| 20260505201045 | 83 | 235 | 6.1 | 10.4 | 0.00 | 0.00 | 0.00 | 71 | 1007.3 |
| 20260505200544 | 83 | 195 | 4.3 | 9.6 | 0.00 | 0.00 | 0.00 | 73 | 1007.3 |
| 20260505200051 | 83 | 192 | 5.2 | 9.6 | 0.00 | 0.00 | 0.00 | 72 | 1007.3 |
| 20260505195547 | 83 | 199 | 5.2 | 11.3 | 0.00 | 0.00 | 0.00 | 71 | 1007.3 |
| 20260505195044 | 83 | 190 | 5.2 | 11.3 | 0.00 | 0.00 | 0.00 | 71 | 1007.4 |
| 20260505194605 | 83 | 206 | 5.2 | 8.7 | 0.00 | 0.00 | 0.00 | 71 | 1007.4 |
| 20260505194044 | 84 | 208 | 2.6 | 9.6 | 0.00 | 0.00 | 0.00 | 71 | 1007.4 |
| 20260505193545 | 83 | 220 | 4.3 | 9.6 | 0.00 | 0.00 | 0.00 | 73 | 1007.6 |
| 20260505193049 | 83 | 197 | 3.5 | 8.7 | 0.00 | 0.00 | 0.00 | 72 | 1007.6 |
| 20260505192544 | 82 | 239 | 3.5 | 9.6 | 0.00 | 0.00 | 0.00 | 74 | 1007.8 |
| 20260505192044 | 82 | 238 | 5.2 | 9.6 | 0.00 | 0.00 | 0.00 | 72 | 1007.9 |
| 20260505191559 | 82 | 221 | 4.3 | 7.8 | 0.00 | 0.00 | 0.00 | 72 | 1008.0 |
| 20260505191044 | 82 | 222 | 3.5 | 7.0 | 0.00 | 0.00 | 0.00 | 75 | 1007.9 |
| 20260505190543 | 81 | 188 | 3.5 | 9.6 | 0.00 | 0.00 | 0.00 | 75 | 1008.1 |
| 20260505190056 | 80 | 263 | 3.5 | 9.6 | 0.00 | 0.00 | 0.00 | 75 | 1008.2 |
| 20260505185549 | 80 | 218 | 4.3 | 9.6 | 0.00 | 0.00 | 0.00 | 74 | 1008.2 |
| 20260505185050 | 81 | 254 | 4.3 | 10.4 | 0.00 | 0.00 | 0.00 | 73 | 1008.4 |
| 20260505184553 | 81 | 219 | 5.2 | 13.0 | 0.00 | 0.00 | 0.00 | 73 | 1008.4 |
| 20260505184044 | 80 | 195 | 5.2 | 13.0 | 0.00 | 0.00 | 0.00 | 76 | 1008.5 |
| 20260505183548 | 81 | 197 | 4.3 | 10.4 | 0.00 | 0.00 | 0.00 | 76 | 1008.6 |
| 20260505183100 | 81 | 194 | 3.5 | 10.4 | 0.00 | 0.00 | 0.00 | 75 | 1008.5 |
| 20260505182544 | 79 | 216 | 6.1 | 9.6 | 0.00 | 0.00 | 0.00 | 76 | 1008.6 |
| 20260505182043 | 79 | 233 | 4.3 | 9.6 | 0.00 | 0.00 | 0.00 | 79 | 1008.8 |
| 20260505181553 | 78 | 229 | 5.2 | 9.6 | 0.00 | 0.00 | 0.00 | 78 | 1008.9 |
| 20260505181044 | 79 | 234 | 3.5 | 8.7 | 0.00 | 0.00 | 0.00 | 79 | 1008.9 |
| 20260505180543 | 78 | 265 | 4.3 | 10.4 | 0.00 | 0.00 | 0.00 | 79 | 1008.8 |
| 20260505180051 | 78 | 234 | 5.2 | 10.4 | 0.00 | 0.00 | 0.00 | 78 | 1008.8 |
| 20260505175543 | 78 | 231 | 4.3 | 9.6 | 0.00 | 0.00 | 0.00 | 80 | 1008.8 |
| 20260505175044 | 78 | 221 | 4.3 | 9.6 | 0.00 | 0.00 | 0.00 | 78 | 1009.0 |
| 20260505174558 | 78 | 234 | 5.2 | 11.3 | 0.00 | 0.00 | 0.00 | 79 | 1009.0 |
| 20260505174044 | 77 | 221 | 5.2 | 11.3 | 0.00 | 0.00 | 0.00 | 80 | 1009.0 |
| 20260505173543 | 77 | 215 | 5.2 | 9.6 | 0.00 | 0.00 | 0.00 | 80 | 1009.1 |
| 20260505173049 | 77 | 224 | 5.2 | 11.3 | 0.00 | 0.00 | 0.00 | 79 | 1009.1 |
| 20260505172545 | 77 | 225 | 6.1 | 11.3 | 0.00 | 0.00 | 0.00 | 80 | 1009.0 |
| 20260505172043 | 77 | 209 | 5.2 | 9.6 | 0.00 | 0.00 | 0.00 | 80 | 1009.0 |
| 20260505171555 | 76 | 221 | 4.3 | 11.3 | 0.00 | 0.00 | 0.00 | 81 | 1009.0 |
| 20260505171047 | 76 | 259 | 6.1 | 12.2 | 0.00 | 0.00 | 0.00 | 82 | 1009.0 |
| 20260505170543 | 76 | 224 | 4.3 | 12.2 | 0.00 | 0.00 | 0.00 | 82 | 1009.2 |
| 20260505170049 | 76 | 208 | 4.3 | 8.7 | 0.00 | 0.00 | 0.00 | 82 | 1009.2 |
| 20260505165544 | 76 | 238 | 5.2 | 9.6 | 0.00 | 0.00 | 0.00 | 82 | 1009.1 |
| 20260505165043 | 75 | 242 | 4.3 | 9.6 | 0.00 | 0.00 | 0.00 | 83 | 1009.2 |
| 20260505164600 | 75 | 233 | 5.2 | 12.2 | 0.00 | 0.00 | 0.00 | 82 | 1009.3 |
| 20260505164043 | 75 | 207 | 6.1 | 12.2 | 0.00 | 0.00 | 0.00 | 83 | 1009.2 |
| 20260505163543 | 75 | 219 | 3.5 | 8.7 | 0.00 | 0.00 | 0.00 | 83 | 1009.3 |
| 20260505163055 | 75 | 196 | 4.3 | 8.7 | 0.00 | 0.00 | 0.00 | 83 | 1009.4 |
| 20260505162547 | 75 | 236 | 4.3 | 7.8 | 0.00 | 0.00 | 0.00 | 84 | 1009.4 |
| 20260505162045 | 74 | 225 | 4.3 | 11.3 | 0.00 | 0.00 | 0.00 | 84 | 1009.4 |
| 20260505161551 | 74 | 215 | 4.3 | 11.3 | 0.00 | 0.00 | 0.00 | 84 | 1009.3 |
| 20260505161045 | 74 | 234 | 4.3 | 9.6 | 0.00 | 0.00 | 0.00 | 85 | 1009.3 |
| 20260505160544 | 74 | 230 | 4.3 | 10.4 | 0.00 | 0.00 | 0.00 | 85 | 1009.3 |
| 20260505153108 | 73 | 225 | 3.5 | 9.6 | 0.00 | 0.00 | 0.00 | 86 | 1009.3 |
| 20260505152544 | 73 | 227 | 4.3 | 9.6 | 0.00 | 0.00 | 0.00 | 86 | 1009.3 |
| 20260505152043 | 73 | 227 | 4.3 | 8.7 | 0.00 | 0.00 | 0.00 | 86 | 1009.4 |
| 20260505151558 | 73 | 218 | 5.2 | 10.4 | 0.00 | 0.00 | 0.00 | 86 | 1009.3 |
| 20260505151044 | 73 | 229 | 5.2 | 10.4 | 0.00 | 0.00 | 0.00 | 86 | 1009.4 |
| 20260505150545 | 72 | 215 | 5.2 | 8.7 | 0.00 | 0.00 | 0.00 | 86 | 1009.3 |
| 20260505140544 | 72 | 223 | 5.2 | 10.4 | 0.00 | 0.00 | 0.00 | 87 | 1008.8 |
| 20260505124553 | 70 | 227 | 3.5 | 8.7 | 0.00 | 0.00 | 0.00 | 88 | 1008.3 |
| 20260505124043 | 70 | 211 | 4.3 | 8.7 | 0.00 | 0.00 | 0.00 | 88 | 1008.2 |
| 20260505123543 | 70 | 227 | 3.5 | 12.2 | 0.00 | 0.00 | 0.00 | 89 | 1008.0 |
| 20260505123057 | 70 | 222 | 4.3 | 12.2 | 0.00 | 0.00 | 0.00 | 89 | 1007.9 |
| 20260505122544 | 70 | 229 | 4.3 | 11.3 | 0.00 | 0.00 | 0.00 | 89 | 1007.8 |
| 20260505122045 | 70 | 232 | 3.5 | 7.8 | 0.00 | 0.00 | 0.00 | 88 | 1007.7 |
| 20260505121548 | 70 | 213 | 3.5 | 7.8 | 0.00 | 0.00 | 0.00 | 89 | 1007.8 |
| 20260505121044 | 70 | 241 | 3.5 | 8.7 | 0.00 | 0.00 | 0.00 | 88 | 1007.6 |
| 20260505120545 | 70 | 216 | 4.3 | 8.7 | 0.00 | 0.00 | 0.00 | 88 | 1007.5 |
| 20260505120053 | 70 | 207 | 3.5 | 7.8 | 0.00 | 0.00 | 0.00 | 88 | 1007.4 |
| 20260505115546 | 70 | 219 | 3.5 | 7.8 | 0.00 | 0.00 | 0.00 | 88 | 1007.5 |
| 20260505115044 | 70 | 214 | 3.5 | 7.8 | 0.00 | 0.00 | 0.00 | 88 | 1007.5 |
| 20260505114550 | 70 | 227 | 3.5 | 6.1 | 0.00 | 0.00 | 0.00 | 88 | 1007.5 |
| 20260505114043 | 70 | 216 | 2.6 | 7.0 | 0.00 | 0.00 | 0.00 | 88 | 1007.4 |
| 20260505113542 | 70 | 209 | 3.5 | 7.8 | 0.00 | 0.00 | 0.00 | 88 | 1007.5 |
| 20260505113052 | 70 | 217 | 3.5 | 7.8 | 0.00 | 0.00 | 0.00 | 87 | 1007.5 |
| 20260505112543 | 70 | 198 | 3.5 | 7.8 | 0.00 | 0.00 | 0.00 | 87 | 1007.4 |
| 20260505112044 | 70 | 242 | 2.6 | 7.0 | 0.00 | 0.00 | 0.00 | 87 | 1007.5 |
| 20260505111555 | 70 | 225 | 3.5 | 7.0 | 0.00 | 0.00 | 0.00 | 87 | 1007.6 |
| 20260505111043 | 70 | 252 | 4.3 | 7.0 | 0.00 | 0.00 | 0.00 | 87 | 1007.6 |
| 20260505110547 | 70 | 238 | 2.6 | 7.0 | 0.00 | 0.00 | 0.00 | 87 | 1007.5 |
| 20260505102044 | 70 | 202 | 3.5 | 7.0 | 0.00 | 0.00 | 0.00 | 87 | 1007.4 |
| 20260505101559 | 70 | 235 | 3.5 | 7.0 | 0.00 | 0.00 | 0.00 | 87 | 1007.4 |
| 20260505101043 | 70 | 208 | 3.5 | 8.7 | 0.00 | 0.00 | 0.00 | 87 | 1007.4 |
| 20260505100545 | 70 | 221 | 4.3 | 9.6 | 0.00 | 0.00 | 0.00 | 87 | 1007.5 |
| 20260505100053 | 70 | 219 | 4.3 | 9.6 | 0.00 | 0.00 | 0.00 | 87 | 1007.6 |
| 20260505095546 | 70 | 213 | 4.3 | 9.6 | 0.00 | 0.00 | 0.00 | 87 | 1007.5 |
| 20260505095043 | 70 | 218 | 4.3 | 9.6 | 0.00 | 0.00 | 0.00 | 87 | 1007.6 |
| 20260505094545 | 70 | 214 | 3.5 | 9.6 | 0.00 | 0.00 | 0.00 | 87 | 1007.5 |
| 20260505094045 | 70 | 222 | 4.3 | 9.6 | 0.00 | 0.00 | 0.00 | 87 | 1007.6 |
| 20260505093543 | 70 | 216 | 3.5 | 8.7 | 0.00 | 0.00 | 0.00 | 87 | 1007.6 |
| 20260505093050 | 70 | 225 | 4.3 | 7.8 | 0.00 | 0.00 | 0.00 | 87 | 1007.9 |
| 20260505092542 | 70 | 229 | 3.5 | 7.8 | 0.00 | 0.00 | 0.00 | 87 | 1007.9 |
| 20260505092042 | 70 | 210 | 4.3 | 7.8 | 0.00 | 0.00 | 0.00 | 87 | 1007.7 |
| 20260505091556 | 70 | 232 | 4.3 | 7.8 | 0.00 | 0.00 | 0.00 | 87 | 1007.8 |
| 20260505091043 | 70 | 221 | 4.3 | 7.0 | 0.00 | 0.00 | 0.00 | 87 | 1007.8 |
| 20260505090547 | 70 | 227 | 3.5 | 7.0 | 0.00 | 0.00 | 0.00 | 87 | 1007.9 |
| 20260505090059 | 70 | 208 | 3.5 | 7.8 | 0.00 | 0.00 | 0.00 | 87 | 1008.1 |
| 20260505085544 | 70 | 239 | 3.5 | 7.8 | 0.00 | 0.00 | 0.00 | 87 | 1008.2 |
| 20260505085044 | 70 | 203 | 3.5 | 8.7 | 0.00 | 0.00 | 0.00 | 87 | 1008.1 |
| 20260505084550 | 70 | 230 | 3.5 | 9.6 | 0.00 | 0.00 | 0.00 | 87 | 1008.1 |
| 20260505084044 | 70 | 222 | 4.3 | 9.6 | 0.00 | 0.00 | 0.00 | 87 | 1008.0 |
| 20260505083543 | 70 | 225 | 3.5 | 7.8 | 0.00 | 0.00 | 0.00 | 87 | 1008.2 |
| 20260505083053 | 70 | 232 | 3.5 | 7.0 | 0.00 | 0.00 | 0.00 | 87 | 1008.2 |
| 20260505082543 | 70 | 248 | 3.5 | 8.7 | 0.00 | 0.00 | 0.00 | 87 | 1008.3 |
| 20260505082044 | 70 | 220 | 3.5 | 9.6 | 0.00 | 0.00 | 0.00 | 87 | 1008.6 |
| 20260505081600 | 70 | 219 | 3.5 | 9.6 | 0.00 | 0.00 | 0.00 | 87 | 1008.6 |
| 20260505081042 | 70 | 189 | 3.5 | 7.8 | 0.00 | 0.00 | 0.00 | 87 | 1008.5 |
| 20260505080542 | 70 | 236 | 4.3 | 8.7 | 0.00 | 0.00 | 0.00 | 87 | 1008.6 |
| 20260505080053 | 70 | 204 | 4.3 | 11.3 | 0.00 | 0.00 | 0.00 | 86 | 1008.7 |
| 20260505075542 | 70 | 219 | 5.2 | 11.3 | 0.00 | 0.00 | 0.00 | 87 | 1008.7 |
| 20260505075042 | 70 | 238 | 3.5 | 8.7 | 0.00 | 0.00 | 0.00 | 87 | 1008.5 |
| 20260505074606 | 70 | 215 | 4.3 | 8.7 | 0.00 | 0.00 | 0.00 | 87 | 1008.7 |
| 20260505074043 | 70 | 243 | 3.5 | 7.0 | 0.00 | 0.00 | 0.00 | 87 | 1008.8 |
| 20260505073542 | 70 | 214 | 4.3 | 7.8 | 0.00 | 0.00 | 0.00 | 87 | 1008.9 |
| 20260505073054 | 70 | 221 | 3.5 | 8.7 | 0.00 | 0.00 | 0.00 | 87 | 1008.9 |
| 20260505072543 | 70 | 216 | 3.5 | 8.7 | 0.00 | 0.00 | 0.00 | 87 | 1009.0 |
| 20260505072043 | 70 | 223 | 4.3 | 8.7 | 0.00 | 0.00 | 0.00 | 87 | 1009.1 |
| 20260505071548 | 70 | 236 | 3.5 | 10.4 | 0.00 | 0.00 | 0.00 | 87 | 1009.2 |
| 20260505071043 | 70 | 214 | 4.3 | 10.4 | 0.00 | 0.00 | 0.00 | 87 | 1009.2 |
| 20260505070543 | 70 | 232 | 3.5 | 8.7 | 0.00 | 0.00 | 0.00 | 87 | 1009.2 |
| 20260505070052 | 70 | 227 | 3.5 | 9.6 | 0.00 | 0.00 | 0.00 | 86 | 1009.2 |
| 20260505065543 | 70 | 211 | 4.3 | 9.6 | 0.00 | 0.00 | 0.00 | 86 | 1009.3 |
| 20260505065042 | 70 | 231 | 3.5 | 10.4 | 0.00 | 0.00 | 0.00 | 86 | 1009.4 |
| 20260505064549 | 70 | 220 | 4.3 | 10.4 | 0.00 | 0.00 | 0.00 | 86 | 1009.2 |
| 20260505064042 | 70 | 232 | 4.3 | 9.6 | 0.00 | 0.00 | 0.00 | 86 | 1009.2 |
| 20260505063544 | 70 | 217 | 4.3 | 11.3 | 0.00 | 0.00 | 0.00 | 87 | 1009.3 |
| 20260505063055 | 70 | 215 | 4.3 | 11.3 | 0.00 | 0.00 | 0.00 | 87 | 1009.5 |
| 20260505062541 | 70 | 208 | 4.3 | 7.8 | 0.00 | 0.00 | 0.00 | 87 | 1009.4 |
| 20260505062042 | 70 | 252 | 3.5 | 12.2 | 0.00 | 0.00 | 0.00 | 87 | 1009.6 |
| 20260505061616 | 70 | 185 | 4.3 | 12.2 | 0.00 | 0.00 | 0.00 | 87 | 1009.4 |
| 20260505061041 | 70 | 251 | 4.3 | 10.4 | 0.00 | 0.00 | 0.00 | 87 | 1009.5 |
| 20260505060550 | 70 | 212 | 3.5 | 8.7 | 0.00 | 0.00 | 0.00 | 87 | 1009.6 |
| 20260505060052 | 70 | 202 | 4.3 | 9.6 | 0.00 | 0.00 | 0.00 | 86 | 1009.6 |
| 20260505055544 | 70 | 235 | 3.5 | 10.4 | 0.00 | 0.00 | 0.00 | 86 | 1009.6 |
| 20260505055049 | 70 | 244 | 4.3 | 10.4 | 0.00 | 0.00 | 0.00 | 86 | 1009.6 |
| 20260505054604 | 70 | 222 | 3.5 | 9.6 | 0.00 | 0.00 | 0.00 | 86 | 1009.8 |
| 20260505054045 | 70 | 210 | 4.3 | 9.6 | 0.00 | 0.00 | 0.00 | 86 | 1009.6 |
| 20260505053541 | 70 | 238 | 4.3 | 7.8 | 0.00 | 0.00 | 0.00 | 86 | 1009.5 |
| 20260505053057 | 70 | 236 | 4.3 | 8.7 | 0.00 | 0.00 | 0.00 | 85 | 1009.5 |
| 20260505052541 | 71 | 232 | 4.3 | 8.7 | 0.00 | 0.00 | 0.00 | 85 | 1009.5 |
| 20260505052042 | 71 | 243 | 4.3 | 8.7 | 0.00 | 0.00 | 0.00 | 85 | 1009.5 |
| 20260505051549 | 71 | 212 | 3.5 | 11.3 | 0.00 | 0.00 | 0.00 | 85 | 1009.3 |
| 20260505051045 | 71 | 211 | 5.2 | 11.3 | 0.00 | 0.00 | 0.00 | 84 | 1009.4 |
| 20260505050541 | 71 | 207 | 4.3 | 10.4 | 0.00 | 0.00 | 0.00 | 84 | 1009.4 |